This is the latest recevied weather packets stored in our database for station/object WD5U-1. If no packets are shown the sender has not sent any weather packets the latest 10 day(s).
| Time | Temp. | Humidity | Pressure | Rain* | Wind** | Luminosity | Snow |
|---|---|---|---|---|---|---|---|
| 1777722978 | 9.44° C | 84% | 1021.9 hPa | 0 mm | - | - | - |
| 1777722624 | 9.44° C | 85% | 1021.9 hPa | 0 mm | - | - | - |
| 1777722138 | 8.89° C | 87% | 1021.8 hPa | 0 mm | - | - | - |
| 1777721419 | 10° C | 83% | 1021.7 hPa | 0 mm | - | - | - |
| 1777720579 | 8.89° C | 87% | 1021.6 hPa | 0 mm | - | - | - |
| 1777720457 | 8.89° C | 87% | 1021.5 hPa | 0 mm | - | - | - |
| 1777720225 | 9.44° C | 86% | 1021.4 hPa | 0 mm | - | - | - |
| 1777719617 | 8.89° C | 87% | 1021.5 hPa | 0 mm | - | - | - |
| 1777719385 | 8.89° C | 88% | 1021.3 hPa | 0 mm | - | - | - |
| 1777719141 | 8.89° C | 89% | 1021.2 hPa | 0 mm | - | - | - |
| 1777717960 | 8.89° C | 88% | 1021.4 hPa | 0 mm | - | - | - |
| 1777717826 | 8.89° C | 88% | 1021.2 hPa | 0 mm | - | - | - |
| 1777717461 | 8.33° C | 91% | 1021 hPa | 0 mm | - | - | - |
| 1777716742 | 8.33° C | 90% | 1021 hPa | 0 mm | - | - | - |
| 1777716148 | 8.33° C | 91% | 1020.8 hPa | 0 mm | - | - | - |
| 1777715439 | 8.33° C | 91% | 1021 hPa | 0 mm | - | - | - |
| 1777714465 | 9.44° C | 88% | 1021 hPa | 0 mm | - | - | - |
| 1777713382 | 10° C | 87% | 1020.7 hPa | 0 mm | - | - | - |
| 1777713159 | 10° C | 87% | 1020.8 hPa | 0 mm | - | - | - |
| 1777713018 | 10° C | 88% | 1020.8 hPa | 0 mm | - | - | - |
| 1777712805 | 9.44° C | 90% | 1020.9 hPa | 0 mm | - | - | - |
| 1777712420 | 8.89° C | 91% | 1020.9 hPa | 0 mm | - | - | - |
| 1777710618 | 9.44° C | 91% | 1020.9 hPa | 0 mm | - | - | - |
| 1777710497 | 8.89° C | 92% | 1020.8 hPa | 0 mm | - | - | - |
| 1777710041 | 9.44° C | 91% | 1020.7 hPa | 0 mm | - | - | - |
* Rain latest hour (hover to see other rain measurements)
** Current wind speed in m/s (hover to see current wind gust speed)